Location: Beadle
(51.4667°N, 109.0000°W)
Time: 04:28:07
(UTC+00:00)

Altair - Pass Details

Date: 06 June 2022
Orbit: 1501 x 1682 km, 47.2° (Epoch: 30 June)

Event Time Altitude Azimuth Distance (km) Brightness Sun altitude
Rises 00:38:39 0° 274° (W) 4,849 11.6 23.0°
Reaches altitude 10° 00:41:46 10° 272° (W) 3,883 11.7 22.5°
Maximum altitude 00:51:36 66° 193° (SSW) 1,803 8.3 21.0°
Drops below altitude 10° 01:01:37 10° 115° (ESE) 3,943 9.1 19.5°
Sets 01:04:48 0° 113° (ESE) 4,928 9.5 19.0°
